Regional Weather Roundup
Issued by NWS

Home | Current Version | Previous Version | Graphics & Text | Print | Product List | Glossary On
Versions: 1 2 3 4 5 6 7 8 9 10 11 12 13 14 15 16 17 18 19 20 21 22 23 24 25 26 27 28 29 30 31 32 33 34 35 36 37 38 39 40 41 42 43 44 45 46 47
000
ASUS45 KBOU 251610
RWRCO

WEATHER ROUNDUP FOR COLORADO
NATIONAL WEATHER SERVICE DENVER/BOULDER CO
1000 AM MDT WED APR 25 2018

NOTE: "FAIR" INDICATES FEW OR NO CLOUDS BELOW 12000 FEET WITH NO
SIGNIFICANT WEATHER AND/OR OBSTRUCTIONS TO VISIBILITY.

COZ001>005-013-030-031-251700-
...NORTHWEST COLORADO...

CITY           SKY/WX    TMP DP  RH WIND       PRES   REMARKS
CRAIG          FAIR      40  27  59 W6        30.38F
HAYDEN         FAIR      42  23  46 CALM      30.39F
MEEKER         FAIR      40  22  48 CALM      30.37F
RANGELY        FAIR      45  21  39 E3        30.37F
RABBIT EARS PA FAIR      28  18  64 CALM      30.41R
STEAMBOAT SPGS FAIR      37  22  55 CALM      30.37F
WALDEN         FAIR      37  19  48 CALM      30.39F
$$

COZ006>008-011-251700-
...WEST CENTRAL VALLEYS...

CITY           SKY/WX    TMP DP  RH WIND       PRES   REMARKS
GRAND JUNCTION FAIR      52  20  28 SE13      30.33F
MONTROSE       FAIR      46  18  32 NW5       30.36F
EAGLE          FAIR      41  21  44 CALM      30.41F
RIFLE          FAIR      45  24  43 CALM      30.36F
DELTA          FAIR      49  19  30 S3        30.36F
NUCLA          NOT AVBL
$$

COZ017>023-064>068-251700-
...SOUTHWEST COLORADO...

CITY           SKY/WX    TMP DP  RH WIND       PRES   REMARKS
DURANGO        FAIR      55  20  25 SE10      30.27S
CORTEZ         FAIR      57   3  11 VRB5      30.25F
PAGOSA SPRINGS FAIR      54  -8   7 W3        30.31S
TELLURIDE      FAIR      48   0  13 CALM      30.36S
WOLF CREEK PAS FAIR      32  -9  16 N9        30.50R WCI  24
$$

COZ009-010-012-014-032>034-037-058>063-251700-
...CENTRAL COLORADO...

CITY           SKY/WX    TMP DP  RH WIND       PRES   REMARKS
ASPEN          FAIR      41  15  35 CALM      30.36F
BUENA VISTA    FAIR      37  26  63 E3        30.38F
COPPER MTN     NOT AVBL
BERTHOUD PASS  FAIR      23  12  63 NW6       30.44R WCI  16
COTTONWOOD PAS FAIR      41  32  70 E6        30.40S
GUNNISON       FAIR      41  16  36 NE3       30.38F
GRANBY         FAIR      34  23  63 CALM      30.41F
KREMMLING      FAIR      43  27  52 W3        30.42F
LEADVILLE      FAIR      34   8  33 CALM      30.39F
MONARCH PASS   FAIR      32   0  25 CALM      30.56R
SALIDA         FAIR      40  25  56 CALM      30.46F
SUNLIGHT       FAIR      34  -4  19 SE3       30.46S
WILKERSON PASS FAIR      32  10  40 NE8       30.44R WCI  25
$$

COZ069>075-251700-
...SAN LUIS VALLEY/SANGRE DE CRISTO MOUNTAINS...

CITY           SKY/WX    TMP DP  RH WIND       PRES   REMARKS
ALAMOSA        FAIR      45  18  34 E5        30.35F
DEL NORTE      FAIR      44  13  27 CALM      30.36S
LA VETA PASS   FAIR      34  27  75 W6        30.50R WCI  29
SAGUACHE       NOT AVBL
$$

COZ035-036-038>040-251700-
...NORTHERN COLORADO FRONT RANGE...

CITY           SKY/WX    TMP DP  RH WIND       PRES   REMARKS
DENVER INTL AP FAIR      44  29  55 SW8       30.32F
AURORA         SUNNY     43  30  60 SW7       30.32F
FRONT RANGE AP SUNNY     45  30  57 S8        30.33F
ERIE MUNI ARPT FAIR      44  32  63 S3        30.37F
BOULDER MUN AP FAIR      43  32  65 CALM      30.31F
CENTENNIAL     FAIR      43  28  55 VRB5      30.32F
BROOMFIELD     SUNNY     41  32  70 S8        30.32F
FORT COLLINS   FAIR      43  31  62 S7        30.32F
LONGMONT       FAIR      47  32  57 E3        30.34F
$$

COZ041-046-047-076>085-087-088-251700-
...PIKES PEAK/PALMER DIVIDE AND SOUTHERN FOOTHILLS...

CITY           SKY/WX    TMP DP  RH WIND       PRES   REMARKS
COLO. SPRINGS  FAIR      39  32  76 S3        30.34F
A. F. ACADEMY  FAIR      37  30  75 CALM      30.32F
SCHRIEVER AFB  NOT AVBL
CHEYENNE MTN   FAIR      38  33  85 E5        30.28F
ELLICOTT         N/A    N/A N/A N/A W6        30.33F
FALCON         FAIR      40  30  66 W5        30.34F
FORT CARSON    FAIR      40  31  69 CALM      30.33F
LIMON          FAIR      42  28  57 NW10G20   30.34S
MONUMENT HILL  FAIR      36  27  69 W5        30.34F
CANON CITY     FAIR      46  34  61 W13G18    30.33F
WALSENBURG     NOT AVBL
TRINIDAD       FAIR      41  33  73 VRB3      30.35F
$$

COZ042>045-048>051-090-091-251700-
...NORTHEAST COLORADO...

CITY           SKY/WX    TMP DP  RH WIND       PRES   REMARKS
GREELEY ARPT   FAIR      46  31  55 SW9       30.33F
AKRON          FAIR      43  29  57 W9        30.32F
BURLINGTON     FAIR      44  30  57 N12       30.33F
WRAY           FAIR      46  28  49 N7        30.33F
YUMA           FAIR      43  27  52 NW7       30.33F
STERLING       NOT AVBL
HOLYOKE        FAIR      50  28  43 NW8       30.32F
FORT MORGAN    FAIR      47  25  41 W9        30.33F
$$

COZ086-089-092>099-251700-
...SOUTHEAST COLORADO...

CITY           SKY/WX    TMP DP  RH WIND       PRES   REMARKS
PUEBLO         PTSUNNY   45  35  68 VRB3      30.35F
LA JUNTA       FAIR      47  31  53 N8        30.36F
LAMAR          FAIR      46  31  55 N10       30.34F
SPRINGFIELD      N/A     45  29  53 N20G26    30.33F
$$




USA.gov is the U.S. government's official web portal to all federal, state and local government web resources and services.